This is the latest recevied weather packets stored in our database for station/object KD7AWQ. If no packets are shown the sender has not sent any weather packets the latest 10 day(s).
| Time | Temp. | Humidity | Pressure | Rain* | Wind** | Luminosity | Snow |
|---|---|---|---|---|---|---|---|
| 1777785321 | 16.67° C | 44% | 1186.5 hPa | 0 mm | - | 0 W/m² | - |
| 1777785019 | 16.67° C | 44% | 1186.3 hPa | 0 mm | - | 0 W/m² | - |
| 1777784714 | 17.22° C | 43% | 1186.5 hPa | 0 mm | - | 0 W/m² | - |
| 1777784412 | 17.22° C | 43% | 1186.2 hPa | 0 mm | - | 0 W/m² | - |
| 1777784109 | 17.22° C | 43% | 1186.2 hPa | 0 mm | - | 0 W/m² | - |
| 1777783806 | 17.78° C | 42% | 1186.2 hPa | 0 mm | - | 0 W/m² | - |
| 1777783503 | 17.22° C | 42% | 1186 hPa | 0 mm | - | 0 W/m² | - |
| 1777783200 | 17.22° C | 42% | 1186 hPa | 0 mm | - | 0 W/m² | - |
| 1777782896 | 17.22° C | 41% | 1186.2 hPa | 0 mm | - | 0 W/m² | - |
| 1777782593 | 17.78° C | 40% | 1186.1 hPa | 0 mm | - | 0 W/m² | - |
| 1777782290 | 17.78° C | 40% | 1186.2 hPa | 0 mm | - | 0 W/m² | - |
| 1777781986 | 18.33° C | 40% | 1185.8 hPa | 0 mm | - | 0 W/m² | - |
| 1777781683 | 18.33° C | 38% | 1185.8 hPa | 0 mm | - | 0 W/m² | - |
| 1777781381 | 18.33° C | 38% | 1185.6 hPa | 0 mm | - | 0 W/m² | - |
| 1777781078 | 18.89° C | 36% | 1185.6 hPa | 0 mm | - | 0 W/m² | - |
| 1777780775 | 19.44° C | 33% | 1185.5 hPa | 0 mm | - | 0 W/m² | - |
| 1777780472 | 19.44° C | 32% | 1185.3 hPa | 0 mm | - | 0 W/m² | - |
| 1777780170 | 19.44° C | 31% | 1185.5 hPa | 0 mm | - | 0 W/m² | - |
| 1777779867 | 19.44° C | 31% | 1185.6 hPa | 0 mm | - | 0 W/m² | - |
| 1777779564 | 19.44° C | 31% | 1185.5 hPa | 0 mm | - | 0 W/m² | - |
| 1777779261 | 20° C | 31% | 1185.4 hPa | 0 mm | - | 0 W/m² | - |
| 1777778959 | 20° C | 30% | 1185.4 hPa | 0 mm | - | 0 W/m² | - |
| 1777778658 | 19.44° C | 31% | 1185.3 hPa | 0 mm | - | 0 W/m² | - |
| 1777778355 | 20° C | 30% | 1185.2 hPa | 0 mm | - | 0 W/m² | - |
| 1777778053 | 20° C | 31% | 1185 hPa | 0 mm | - | 0 W/m² | - |
* Rain latest hour (hover to see other rain measurements)
** Current wind speed in m/s (hover to see current wind gust speed)